[[{"header":{"parameterUnit":"m.s-1","parameterCategory":1,"la1":30.2991,"la2":30.254,"lo1":-89.0895,"lo2":-89.0444,"dy":0.0017,"dx":0.0017,"nx":28,"ny":28,"refTime":"2024-07-03T09:00:00:Z","depth":0,"parameterNumber":2,"parameterNumberName":"U-component_of_WINDS"},"data":[0,0,0,0,0,0,0,0,0,0,0,0,0,0,0,0,0,0,0,0,0,0,0,0,0,0,0,0,0,0,0,0,0,0,0,0,0,0,0,0,0,0,0,0,0,0,0,0,0,0,0,0,0,0,0,0,0,0,0.4345,0.4346,0,0.4503,0.4505,0.4506,0.4578,0.4578,0.4578,0.4577,0.4741,0.4746,0.475,0,0,0,0,0,0,0,0,0,0,0,0,0,0.4106,0.411,0.4344,0.4346,0.4348,0.4503,0.4505,0.4507,0.4578,0.4578,0.4577,0.4577,0.474,0.4745,0.475,0,0,0,0,0,0,0,0,0,0,0,0,0,0.4231,0.4111,0.4344,0.4402,0.4409,0.4502,0.4505,0.4507,0.4578,0.4578,0.4577,0.4577,0.4738,0.4745,0.4751,0.4799,0,0,0.4772,0.4775,0,0,0,0,0,0,0,0,0.4224,0.424,0.4392,0.4399,0.4406,0.452,0.4481,0.4605,0.4578,0.4514,0.4577,0.4577,0.4668,0.4681,0.4711,0.4806,0.4813,0.4773,0.4777,0.478,0.4782,0,0,0,0,0,0,0,0.4215,0.4234,0.4407,0.4394,0.4403,0.4421,0.4439,0.4505,0.4591,0.452,0.4525,0.4543,0.4672,0.4704,0.4715,0.4816,0.4772,0.4778,0.4783,0.4785,0.4959,0.496,0,0,0,0,0,0,0.4197,0.4226,0.4402,0.4412,0.4313,0.4426,0.4445,0.4484,0.459,0.4606,0.4543,0.4545,0.4693,0.4707,0.4721,0.4785,0.478,0.4786,0.479,0.4959,0.4959,0.496,0,0,0,0,0,0,0.4191,0.4212,0.4396,0.4321,0.4345,0.443,0.4473,0.4487,0.452,0.4608,0.4624,0.456,0.4693,0.4712,0.4779,0.4791,0.4789,0.4795,0.4958,0.4959,0.4959,0.4911,0,0,0,0,0,0,0.4184,0.421,0.4228,0.432,0.4349,0.445,0.4474,0.4491,0.4531,0.4536,0.4628,0.4643,0.4694,0.4768,0.4786,0.4801,0.48,0.4957,0.4958,0.4959,0.4912,0.491,0.4908,0,0,0,0,0,0.4176,0.4208,0.4228,0.4249,0.4374,0.445,0.4467,0.4525,0.4531,0.4551,0.4608,0.464,0.4787,0.4775,0.4795,0.4812,0.4957,0.4958,0.4959,0.4912,0.491,0.4908,0,0,0,0,0,0,0.4115,0.4221,0.4245,0.4308,0.437,0.4462,0.4489,0.4521,0.4582,0.4584,0.4654,0.4674,0.4736,0.4781,0.4765,0.4864,0.4875,0.488,0.4832,0.4831,0.4829,0.4817,0.4806,0,0,0,0,0,0.4109,0.4162,0.4252,0.4299,0.4329,0.4403,0.4439,0.4478,0.4545,0.4572,0.4633,0.4697,0.4758,0.4797,0.4858,0.4918,0.494,0.494,0.4938,0.4936,0.494,0.4977,0.4978,0.4964,0.4964,0.4964,0,0,0.4097,0.4161,0.4191,0.4288,0.4341,0.4395,0.4425,0.448,0.4522,0.458,0.4648,0.4695,0.4772,0.4836,0.4867,0.4875,0.4949,0.4938,0.4936,0.4941,0.4978,0.4979,0.498,0.4965,0.4964,0.4964,0,0,0.4103,0.4156,0.4202,0.4254,0.4333,0.4382,0.4393,0.4482,0.4515,0.4584,0.4629,0.4679,0.4782,0.4835,0.4876,0.4902,0.4934,0.492,0.4911,0.4946,0.4947,0.4948,0.4959,0.4962,0.4924,0.4923,0.4923,0,0.4078,0.4161,0.4221,0.4275,0.4317,0.4373,0.442,0.4468,0.4562,0.459,0.4598,0.4729,0.4784,0.4862,0.4868,0.4899,0.4914,0.491,0.4942,0.4944,0.4946,0.4957,0.496,0.4921,0.4921,0.4922,0.4922,0,0.4127,0.4184,0.4211,0.4301,0.4347,0.4397,0.4466,0.4504,0.454,0.4588,0.4658,0.4726,0.4802,0.4824,0.4859,0.4907,0.4909,0.4928,0.4941,0.4944,0.4956,0.496,0.4918,0.4919,0.492,0.492,0,0,0.4099,0.4222,0.4232,0.4274,0.4365,0.4411,0.4463,0.4537,0.457,0.4633,0.468,0.4766,0.4784,0.483,0.4872,0.4902,0.492,0.4918,0.492,0.4916,0.4978,0.4964,0.4967,0.4941,0.4942,0.4943,0.4972,0,0.4118,0.4215,0.4272,0.4346,0.44,0.4454,0.45,0.4561,0.4609,0.4662,0.4714,0.4774,0.4793,0.4821,0.4854,0.4911,0.4933,0.4909,0.4987,0.4989,0.4966,0.4973,0.4958,0.4982,0.4977,0.4977,0.4978,0,0.4154,0.4216,0.4296,0.4382,0.4407,0.4447,0.452,0.457,0.4641,0.4673,0.4724,0.4766,0.4825,0.4832,0.4915,0.4897,0.4932,0.4965,0.4967,0.4978,0.4984,0.4984,0.4991,0.4995,0.4985,0.4985,0.4984,0,0.4126,0.423,0.4292,0.4326,0.4428,0.4455,0.4499,0.457,0.4611,0.4675,0.4703,0.4772,0.481,0.4864,0.4924,0.4923,0.5001,0.5013,0.503,0.5029,0.5045,0.5043,0.5058,0.5065,0.5065,0.5065,0.5065,0,0.4142,0.4189,0.4281,0.4319,0.4373,0.4438,0.449,0.4538,0.4601,0.4649,0.47,0.4745,0.4821,0.4875,0.4922,0.4984,0.5001,0.5029,0.5041,0.5025,0.5021,0.5049,0.505,0.5066,0.5066,0.5066,0.5066,0,0.4121,0.4185,0.4255,0.4346,0.437,0.4406,0.4484,0.4523,0.4573,0.4634,0.4652,0.4731,0.4797,0.4862,0.4951,0.4983,0.5045,0.506,0.502,0.5027,0.5041,0.5039,0.5075,0.5084,0.5084,0.5084,0.5084,0,0.4127,0.4165,0.426,0.4296,0.4339,0.4396,0.4439,0.4504,0.4546,0.463,0.4659,0.473,0.4789,0.4893,0.4959,0.5027,0.5046,0.5053,0.5056,0.5039,0.5047,0.5044,0.5049,0.5052,0.5051,0.5051,0.5051,0,0.4132,0.4162,0.4221,0.4291,0.434,0.4399,0.4459,0.4486,0.4563,0.4608,0.4677,0.4723,0.4814,0.4883,0.496,0.5006,0.5042,0.5049,0.5057,0.5042,0.5017,0.5031,0.5017,0.5049,0.5049,0.5049,0.5049,0.5049,0.4126,0.4162,0.4235,0.4299,0.4351,0.4407,0.4448,0.4503,0.4562,0.4641,0.4676,0.4745,0.4817,0.4923,0.4968,0.5024,0.5033,0.5044,0.5047,0.5049,0.5046,0.5007,0.5038,0.5038,0.5038,0.5038,0.5039,0,0.4134,0.4183,0.4242,0.4325,0.4376,0.4405,0.4473,0.4514,0.4574,0.4637,0.4695,0.4774,0.4842,0.4913,0.4985,0.5016,0.5034,0.5032,0.5031,0.5041,0.5033,0.502,0.5016,0.5016,0.5016,0.5016,0.5016,0.5016,0.4144,0.4207,0.4245,0.4335,0.4385,0.4453,0.449,0.4541,0.4592,0.4678,0.4735,0.478,0.4847,0.4924,0.4988,0.5007,0.5032,0.5026,0.5049,0.504,0.5042,0.5043,0.5031,0.503,0.503,0.5053,0.5053,0.5054]},{"header":{"parameterUnit":"m.s-1","parameterCategory":1,"la1":30.2991,"la2":30.254,"lo1":-89.0895,"lo2":-89.0444,"dy":0.0017,"dx":0.0017,"nx":28,"ny":28,"refTime":"2024-07-03T09:00:00:Z","depth":0,"parameterNumber":3,"parameterNumberName":"V-component_of_WINDS"},"data":[0,0,0,0,0,0,0,0,0,0,0,0,0,0,0,0,0,0,0,0,0,0,0,0,0,0,0,0,0,0,0,0,0,0,0,0,0,0,0,0,0,0,0,0,0,0,0,0,0,0,0,0,0,0,0,0,0,0,4.7569,4.7569,0,4.7535,4.7534,4.7534,4.7498,4.7498,4.7497,4.7497,4.7459,4.7458,4.7458,0,0,0,0,0,0,0,0,0,0,0,0,0,4.7601,4.7601,4.7569,4.7568,4.7568,4.7535,4.7534,4.7534,4.7498,4.7498,4.7497,4.7497,4.7459,4.7458,4.7458,0,0,0,0,0,0,0,0,0,0,0,0,0,4.7579,4.7601,4.7569,4.7546,4.7544,4.7535,4.7534,4.7534,4.7499,4.7498,4.7497,4.7496,4.7459,4.7459,4.7458,4.7467,0,0,4.7455,4.7455,0,0,0,0,0,0,0,0,4.7581,4.7578,4.755,4.7548,4.7545,4.752,4.7532,4.7511,4.7499,4.7516,4.7497,4.7496,4.748,4.7477,4.7472,4.7465,4.7464,4.7455,4.7455,4.7454,4.7454,0,0,0,0,0,0,0,4.7582,4.7579,4.7555,4.755,4.7547,4.7537,4.7533,4.7528,4.7502,4.7514,4.7512,4.7508,4.7478,4.7473,4.7471,4.7463,4.7455,4.7454,4.7454,4.7454,4.7463,4.7464,0,0,0,0,0,0,4.7587,4.7581,4.7556,4.7554,4.7562,4.7537,4.7533,4.7529,4.7502,4.7497,4.7509,4.7507,4.7475,4.7472,4.747,4.748,4.7454,4.7453,4.7453,4.7463,4.7464,4.7464,0,0,0,0,0,0,4.7588,4.7586,4.7558,4.7567,4.7563,4.7538,4.7533,4.7529,4.7524,4.7498,4.7493,4.7509,4.7474,4.7471,4.7468,4.7478,4.7453,4.7452,4.7462,4.7463,4.7464,4.7499,0,0,0,0,0,0,4.7589,4.7586,4.759,4.7567,4.7562,4.7558,4.7534,4.7528,4.7523,4.7519,4.7496,4.7492,4.7473,4.747,4.7468,4.7476,4.7452,4.7461,4.7462,4.7464,4.7497,4.7501,4.7505,0,0,0,0,0,4.7591,4.76,4.759,4.7587,4.7567,4.7559,4.7556,4.7535,4.7523,4.7527,4.7511,4.7493,4.7477,4.747,4.7467,4.7475,4.746,4.7462,4.7463,4.7495,4.7501,4.7505,0,0,0,0,0,0,4.7623,4.7597,4.7585,4.7588,4.7576,4.7553,4.7556,4.7541,4.7531,4.7528,4.7502,4.7497,4.7498,4.7486,4.7479,4.7484,4.7466,4.7467,4.7491,4.7496,4.75,4.7503,4.7451,0,0,0,0,0,4.7631,4.7627,4.7604,4.7609,4.7604,4.7581,4.7577,4.7562,4.7548,4.7542,4.7526,4.7512,4.7504,4.75,4.7491,4.7495,4.749,4.75,4.7504,4.7507,4.7509,4.7511,4.7515,4.747,4.747,4.747,0,0,4.7646,4.7632,4.7631,4.7615,4.7604,4.76,4.7577,4.7574,4.7571,4.7541,4.7539,4.7526,4.7509,4.7511,4.7511,4.7501,4.752,4.7509,4.7512,4.7512,4.7513,4.7517,4.7521,4.7471,4.7471,4.7471,0,0,4.7673,4.7662,4.7665,4.7654,4.7638,4.7623,4.7624,4.7603,4.7594,4.7592,4.757,4.7566,4.7552,4.7542,4.7534,4.7558,4.7542,4.7556,4.7577,4.758,4.7583,4.7586,4.7595,4.7599,4.7558,4.7558,4.7558,0,4.7694,4.7689,4.7668,4.7667,4.766,4.7635,4.7638,4.7629,4.761,4.7606,4.7596,4.758,4.7567,4.7566,4.7572,4.7567,4.7567,4.7558,4.7585,4.7587,4.759,4.7598,4.7602,4.756,4.7559,4.7559,4.7559,0,4.7715,4.7712,4.7716,4.7701,4.7695,4.7696,4.7675,4.7671,4.7658,4.7644,4.7642,4.7625,4.7613,4.7612,4.7597,4.7609,4.7604,4.759,4.7571,4.7596,4.7604,4.7607,4.7562,4.7562,4.7561,4.7561,0,0,4.7761,4.7735,4.7737,4.773,4.7711,4.7707,4.7707,4.7697,4.7694,4.7683,4.7682,4.7672,4.7659,4.7651,4.7636,4.7638,4.7659,4.7623,4.7623,4.7631,4.7671,4.7682,4.7686,4.7648,4.7648,4.7649,4.7673,0,4.7784,4.7783,4.7765,4.7769,4.7765,4.7742,4.7742,4.773,4.7718,4.7713,4.7698,4.7692,4.7675,4.767,4.7672,4.7656,4.7667,4.7654,4.7647,4.7647,4.7652,4.769,4.7702,4.7725,4.7676,4.7676,4.7676,0,4.7811,4.7803,4.7807,4.7789,4.7786,4.7787,4.7776,4.7772,4.7758,4.7749,4.7741,4.7724,4.7722,4.7705,4.7703,4.7695,4.769,4.7682,4.7683,4.7681,4.7663,4.769,4.7732,4.7736,4.7681,4.768,4.768,0,4.7844,4.7834,4.7835,4.783,4.7808,4.7809,4.78,4.7786,4.7781,4.7772,4.7769,4.7759,4.7753,4.7746,4.7727,4.7716,4.7726,4.7708,4.7719,4.7719,4.7721,4.7722,4.7764,4.7719,4.7719,4.7719,4.7719,0,4.7872,4.7876,4.785,4.7851,4.7854,4.7833,4.7836,4.7825,4.7813,4.7811,4.779,4.7788,4.7763,4.7759,4.7743,4.7744,4.7741,4.7734,4.773,4.7736,4.7737,4.7733,4.7731,4.772,4.7719,4.7719,4.7719,0,4.791,4.7892,4.7892,4.7873,4.7868,4.7872,4.7855,4.7855,4.7841,4.7839,4.7837,4.7816,4.781,4.779,4.7779,4.7769,4.7774,4.7766,4.7779,4.7776,4.7788,4.7788,4.7829,4.7834,4.7786,4.7787,4.7787,0,4.7929,4.7931,4.7912,4.791,4.7903,4.7899,4.7894,4.7874,4.787,4.7856,4.7857,4.785,4.7843,4.7834,4.7817,4.7808,4.78,4.7815,4.7799,4.7805,4.7801,4.7801,4.7802,4.7819,4.782,4.782,4.7821,0,4.7965,4.7956,4.7951,4.7943,4.7939,4.7931,4.7922,4.7922,4.7899,4.7895,4.789,4.7884,4.7874,4.7866,4.7856,4.7846,4.783,4.7826,4.7828,4.7835,4.7842,4.7839,4.7789,4.7825,4.7825,4.7824,4.7824,4.7824,4.7994,4.7995,4.7983,4.7978,4.7969,4.7962,4.7961,4.7949,4.7944,4.7934,4.7922,4.7918,4.7905,4.7889,4.788,4.7877,4.7868,4.7871,4.7871,4.7872,4.7876,4.7843,4.7874,4.7874,4.7874,4.7874,4.7874,0,4.8029,4.802,4.8016,4.8005,4.8001,4.7988,4.7978,4.7975,4.7972,4.7962,4.7956,4.795,4.7943,4.7926,4.7918,4.7918,4.7911,4.7917,4.7917,4.7915,4.7884,4.7883,4.7923,4.7923,4.7923,4.7923,4.7923,4.7923,4.8047,4.8049,4.8039,4.8037,4.8028,4.8025,4.802,4.8013,4.8005,4.8,4.7995,4.7984,4.7971,4.7962,4.7956,4.7951,4.7949,4.7958,4.7951,4.7922,4.7917,4.7913,4.7912,4.7957,4.7958,4.7982,4.7983,4.7983]}]]